Weather History for Damascus, Syria

Change the Weather History Date:

Wednesday, January 8, 2014

  Actual Average Record
Temperature  
Mean Temperature 40 °F -  
Max Temperature 55 °F 55 °F 64 °F (2001)
Min Temperature 24 °F 34 °F 24 °F (2014)
Degree Days  
Heating Degree Days 26    
Moisture  
Dew Point 25 °F    
Average Humidity 59    
Maximum Humidity 93    
Minimum Humidity 21    
Precipitation  
Precipitation 0.00 in 0.04 in - ()
Sea Level Pressure  
Sea Level Pressure 30.14 in    
Wind  
Wind Speed 2 mph ()    
Max Wind Speed 13 mph    
Max Gust Speed -    
Visibility 8.2 miles    
Events      
Averages and records for this station are not official NWS values.
T = Trace of Precipitation, MM = Missing Value Source: Averaged Metar Reports

Daily Weather History Graph

Daily Weather History Graph

Search for Another Location

Airport:

Trip Planner

Search our weather history database for the weather conditions in past years. The results will help you decide how hot, cold, wet, or windy it might be!

Date:

Astronomy

Jan. 08, 2014 Rise Set
Actual Time 6:38 AM EET 4:42 PM EET
Civil Twilight 6:11 AM EET 5:09 PM EET
Nautical Twilight 5:40 AM EET 5:40 PM EET
Astronomical Twilight 5:10 AM EET 6:10 PM EET
Moon 11:13 AM EET (1/8) No Moon Set
Length of Visible Light 10h 58m
Length of Day
10h 04m
First Quarter, 53% of the Moon is Illuminated
Jan 8
First Quarter
Jan 16
Full
Jan 24
Last Quarter
Jan 30
New
Feb 6
First Quarter

Hourly Weather History & Observations

Time (EET) Temp. Windchill Dew Point Humidity Pressure Visibility Wind Dir Wind Speed Gust Speed Precip Events Conditions
12:00 AM 28.4 °F - 23.0 °F 80% 30.15 in - Calm Calm - N/A   Clear
1:00 AM 28.4 °F - 24.8 °F 86% 30.12 in - Calm Calm - N/A   Clear
2:00 AM 29 °F - 24 °F 75% 30.17 in 9 mi Calm Calm - -  
2:00 AM 28.4 °F - 24.8 °F 86% 30.12 in - Calm Calm - N/A   Clear
3:00 AM 28.4 °F - 24.8 °F 86% 30.12 in - Calm Calm - N/A   Clear
4:00 AM 26.6 °F - 24.8 °F 93% 30.12 in 5.0 mi Calm Calm - N/A   Unknown
5:00 AM 26 °F - 25 °F 93% 30.19 in 9 mi Calm Calm - -  
5:00 AM 26.6 °F - 24.8 °F 93% 30.12 in 5.0 mi Calm Calm - N/A   Unknown
6:00 AM 24.8 °F - 23.0 °F 93% 30.12 in - Calm Calm - N/A   Clear
7:00 AM 26.6 °F - 23.0 °F 86% 30.15 in - Calm Calm - N/A   Clear
8:00 AM 29 °F - 26 °F 85% 30.24 in 9 mi Calm Calm - -  
8:00 AM 28.4 °F - 26.6 °F 93% 30.15 in - Calm Calm - N/A   Clear
9:00 AM 35.6 °F - 26.6 °F 70% 30.18 in - Calm Calm - N/A   Clear
10:00 AM 42.8 °F - 28.4 °F 57% 30.18 in - Calm Calm - N/A   Clear
11:00 AM 48 °F - 27 °F 32% 30.20 in 9 mi East 2.2 mph - -  
11:00 AM 48.2 °F - 26.6 °F 43% 30.15 in - East 2.3 mph - N/A   Clear
12:00 PM 50.0 °F - 28.4 °F 43% 30.15 in - Calm Calm - N/A   Clear
1:00 PM 53.6 °F - 24.8 °F 33% 30.09 in - Calm Calm - N/A   Clear
2:00 PM 54 °F - 26 °F 21% 30.11 in 9 mi East 8.9 mph - -  
2:00 PM 53.6 °F - 23.0 °F 30% 30.09 in - East 9.2 mph - N/A   Clear
3:00 PM 55.4 °F - 23.0 °F 29% 30.09 in - East 4.6 mph - N/A   Clear
4:00 PM 53.6 °F - 23.0 °F 30% 30.12 in - NE 10.4 mph - N/A   Clear
5:00 PM 49 °F - 25 °F 26% 30.15 in 9 mi East 8.9 mph - -  
5:00 PM 48.2 °F - 21.2 °F 34% 30.12 in - NE 10.4 mph - N/A   Clear
6:00 PM 46.4 °F 40.7 °F 21.2 °F 37% 30.12 in - ENE 12.7 mph - N/A   Clear
7:00 PM 44.6 °F 38.4 °F 23.0 °F 43% 30.15 in - ENE 12.7 mph - N/A   Clear
8:00 PM 43 °F - 26 °F 37% 30.19 in 9 mi East 4.6 mph - -  
9:00 PM 37.4 °F 30.8 °F 23.0 °F 56% - - NE 9.2 mph - N/A   Clear
10:00 PM 37.4 °F 32.1 °F 23.0 °F 56% 30.15 in - NNE 6.9 mph - N/A   Clear
11:00 PM 36 °F - 25 °F 53% 30.16 in 9 mi East 1.2 mph - -  
11:00 PM 35.6 °F - 23.0 °F 60% 30.12 in - East 2.3 mph - N/A   Clear